Location: Newark
(36.9100°N, 76.7100°W)
Time: 20:57:20
(UTC+00:00)

Envisat - Visible Passes

Search period start: 22 August 2019 00:00
Search period end: 01 September 2019 00:00
Orbit: 764 x 766 km, 98.1° (Epoch: 22 August)

Date Brightness Start Highest point End Pass type
(mag) Time Alt. Az. Time Alt. Az. Time Alt. Az.
22 Aug 5.8 00:38:10 10° SW 00:41:25 17° W 00:44:41 10° NW visible
25 Aug 5.7 00:26:12 10° SW 00:30:04 22° W 00:33:58 10° NW visible
27 Aug 6.1 00:54:05 10° WSW 00:55:50 12° W 00:57:34 10° WNW visible
28 Aug 5.3 00:14:26 10° SSW 00:18:45 28° W 00:23:05 10° NW visible
30 Aug 5.9 00:41:32 10° SW 00:44:27 15° W 00:47:24 10° NW visible
31 Aug 4.8 00:02:49 10° SSW 00:07:26 36° W 00:12:06 10° NNW visible
